Wind_Speed
16 15 18 18 12 9 19 18 21 25 30 29 31 35 33 31 29 27 24 21 20 18 16 14 12 12 10 8 6 5 6 6 7 6 6 4 5 6 8 10 13 14 15 16 16
12 13 14 18 21 20 22 23 25 26 27 27 30 34 33 30 28 26 23 22 19 17 14 13 11 8 6 5 5 5 6 7 7 4 5 7 7 8 11 13 14 16 16 16 13
19 19 21 21 21 23 23 25 26 26 26 28 30 32 30 29 26 24 22 20 18 15 12 9 7 5 5 5 6 7 8 8 6 6 6 9 9 13 12 13 14 15 15 12 12
21 19 21 21 23 24 24 26 26 27 26 27 29 29 26 25 17 22 20 18 15 12 9 5 4 4 5 6 6 7 7 6 5 7 8 10 12 12 11 13 13 9 9 9 10
18 18 20 22 23 24 25 25 26 25 25 26 26 25 23 21 15 20 17 14 11 8 5 3 4 4 6 5 6 6 6 6 7 8 10 12 11 11 11 8 7 7 8 10 11
18 18 20 22 22 23 23 23 24 23 24 24 23 21 18 10 17 15 12 10 7 6 4 4 4 5 6 5 6 5 6 8 9 10 11 9 11 11 9 7 8 11 14 12 11
17 17 18 20 20 20 21 21 21 21 21 20 19 17 11 8 13 11 9 8 7 6 5 5 6 6 5 5 7 6 7 9 10 8 7 9 8 8 8 10 13 16 15 14 11
16 16 16 16 17 18 19 19 19 19 18 16 14 12 8 8 11 10 9 7 7 6 6 6 7 7 7 7 6 7 8 7 6 8 8 8 7 9 10 15 17 17 15 13 10
13 14 14 15 15 16 17 17 17 16 16 14 12 8 8 9 9 8 7 6 6 6 5 6 6 7 7 6 7 7 5 7 7 7 9 7 9 11 16 19 17 17 11 7 6
11 11 11 12 14 14 14 14 13 13 12 10 8 6 8 8 7 6 5 5 5 5 5 6 6 7 7 6 3 5 6 6 6 7 11 12 12 16 20 18 15 12 9 7 6
9 10 10 10 11 11 12 12 11 10 10 5 7 4 8 7 6 5 4 4 3 3 4 6 6 6 6 5 5 6 6 6 7 10 12 13 16 18 15 11 8 9 9 8 7
8 6 7 9 8 8 9 10 10 11 9 8 7 7 7 5 4 4 4 3 3 3 4 4 5 5 5 4 4 4 6 6 8 10 15 15 14 15 9 5 7 9 10 9 9
13 5 4 5 7 8 7 12 12 11 9 9 8 7 7 7 5 4 5 5 4 4 4 5 4 4 3 3 4 5 5 8 12 15 16 12 12 7 7 8 9 10 10 10 10
14 12 5 3 5 7 10 10 6 5 3 3 3 4 6 6 4 3 2 2 3 3 2 3 5 3 4 4 4 6 6 12 13 14 5 11 5 11 11 12 12 12 12 12 12
11 11 10 6 4 5 6 6 3 3 1 2 2 3 3 5 3 2 1 1 1 2 3 4 4 5 5 5 4 5 10 13 17 13 9 6 5 6 9 13 13 13 14 13 13
7 7 7 7 5 4 5 6 4 2 3 4 3 2 4 4 3 2 1 1 2 3 4 5 5 6 7 7 5 7 12 15 8 5 4 3 1 4 6 10 13 15 16 15 14
5 4 4 4 4 3 1 3 3 4 3 5 3 2 4 5 4 3 3 4 3 3 7 7 8 7 7 7 7 9 7 3 2 3 1 3 8 8 10 12 13 14 15 15 15
1 2 1 2 1 1 1 2 4 3 3 4 2 4 5 5 5 5 6 5 6 5 5 5 4 8 7 6 6 6 2 4 4 3 3 13 8 5 7 10 13 15 16 17 16
6 4 4 3 3 2 2 4 3 3 4 3 5 6 5 7 3 5 5 8 5 5 3 3 5 8 8 9 5 4 4 5 4 5 3 5 7 12 16 15 13 15 16 18 19
7 7 6 5 4 3 3 3 4 4 5 5 5 6 5 6 6 4 4 5 6 7 6 5 5 10 10 7 7 7 7 3 3 3 4 4 7 10 11 10 11 13 17 20 22
8 9 9 8 8 6 5 4 5 6 7 6 7 8 9 8 8 7 6 7 10 9 6 6 7 6 7 7 9 9 8 6 5 4 3 5 3 5 7 12 15 19 21 23 25
9 10 9 9 10 9 8 7 7 10 10 9 8 9 10 8 8 8 10 10 8 9 9 9 7 9 12 13 15 13 12 11 5 4 7 7 16 21 19 19 20 17 18 25 28
12 13 12 11 14 13 12 13 13 12 10 10 8 8 9 11 7 9 10 11 11 10 5 6 5 5 5 8 9 9 9 11 13 14 19 12 9 13 11 16 20 27 27 31 37
13 11 11 12 14 16 17 16 12 11 12 13 15 15 14 15 14 9 10 9 10 11 13 15 16 18 15 13 15 16 18 17 19 17 25 28 38 27 28 28 32 35 41 42 34
16 15 16 11 10 11 13 14 15 14 16 17 18 19 18 16 15 15 16 16 16 15 15 14 20 22 26 25 27 30 29 27 34 38 31 45 34 31 30 38 41 31 25 28 33
19 17 17 19 17 17 17 18 18 19 19 20 20 19 18 19 19 19 18 17 19 18 18 20 21 23 31 29 28 31 30 34 34 34 37 39 36 31 28 21 23 30 32 30 28
19 19 19 20 19 18 19 19 19 19 18 18 19 18 18 18 18 18 19 20 21 21 23 24 20 15 14 16 19 25 18 14 17 17 18 21 22 26 28 29 32 35 32 29 26
Wind_Direction
80 88 74 73 105 139 114 123 131 144 141 148 151 146 148 153 155 153 152 153 156 160 164 167 181 198 208 223 235 240 247 258 261 262 272 255 254 267 280 288 289 291 291 296 301
98 110 110 100 115 120 117 127 133 138 136 144 145 142 147 151 153 151 151 155 160 164 173 177 195 213 232 242 246 245 249 257 259 249 247 264 278 288 292 293 296 297 299 303 304
80 93 101 103 106 112 120 124 128 129 135 141 142 141 147 150 155 153 156 162 168 171 180 187 211 230 247 244 249 254 253 258 247 255 273 281 282 293 296 293 299 300 303 304 313
81 87 95 102 110 112 118 122 126 128 135 141 141 142 146 152 152 160 164 167 169 173 186 187 227 237 245 249 254 253 242 238 253 273 282 290 293 291 292 296 295 293 294 301 307
77 88 98 104 110 116 118 124 125 132 139 139 138 142 151 158 160 163 168 168 169 175 176 187 223 237 243 241 232 224 233 252 261 277 291 294 293 293 296 293 288 306 309 301 300
78 88 98 103 109 114 120 120 129 134 135 135 139 145 151 151 156 161 162 164 159 168 171 195 222 227 226 216 218 221 249 268 278 286 289 290 296 293 291 289 300 318 313 309 308
83 91 97 103 108 111 114 122 124 125 128 132 137 146 144 148 155 155 158 159 159 169 184 200 215 215 219 228 240 252 264 278 282 278 281 295 298 287 278 289 295 309 304 296 306
91 94 96 102 107 113 120 120 119 120 121 125 133 148 157 146 146 154 164 163 177 185 195 206 218 230 240 246 260 271 273 266 264 275 282 294 288 289 283 295 304 303 301 286 292
87 99 109 115 118 120 119 118 119 120 123 131 141 147 154 151 154 161 170 173 193 197 209 224 235 244 250 259 273 258 247 252 274 269 282 280 290 282 291 296 293 292 295 270 277
83 88 95 105 110 110 107 107 112 123 133 139 145 145 154 147 149 161 166 182 203 210 227 240 246 255 255 257 245 247 259 260 270 276 285 288 289 288 293 291 284 275 264 257 272
73 86 91 91 96 99 104 107 117 129 140 162 158 159 149 141 136 140 148 179 200 218 234 239 239 244 248 246 243 254 267 280 281 290 294 298 298 299 298 293 261 242 235 238 259
51 75 92 102 102 110 120 127 125 123 122 134 135 148 152 154 151 162 164 181 202 219 215 215 225 230 226 239 252 275 291 293 299 300 305 303 302 293 285 260 220 214 221 237 261
42 69 108 125 124 124 123 131 131 129 119 111 121 134 143 141 140 161 180 199 205 217 225 225 206 208 234 262 288 295 273 301 304 310 309 310 302 258 249 223 211 221 233 247 266
44 51 81 127 146 148 145 142 142 147 143 128 139 124 173 164 149 148 167 190 216 219 211 196 195 233 268 264 264 289 283 308 308 313 304 306 295 254 239 226 228 238 244 256 268
39 47 59 93 155 162 168 171 144 185 89 229 173 163 165 184 195 190 152 186 284 214 201 219 222 261 255 234 256 280 310 312 303 295 292 287 254 241 234 237 245 249 253 266 280
20 34 47 64 89 160 197 214 243 214 229 178 171 165 184 191 197 176 262 275 268 229 229 223 252 253 226 240 270 310 322 312 298 290 239 238 322 233 248 241 249 254 259 269 275
351 6 29 36 51 51 149 204 215 224 206 190 187 211 214 218 228 244 286 281 265 247 231 238 258 241 239 246 284 314 332 301 260 225 291 232 301 246 258 264 257 254 261 269 275
255 272 299 327 348 54 37 230 234 227 187 203 225 257 243 227 235 229 292 275 272 243 237 237 265 225 228 235 278 287 265 255 265 248 297 283 241 246 245 263 256 260 264 266 272
294 278 254 216 235 240 236 232 221 211 214 226 269 272 240 218 254 281 271 279 243 205 231 267 259 233 239 269 255 254 251 250 257 283 278 238 266 265 267 264 263 269 271 274 277
288 281 281 266 243 241 248 224 248 251 260 258 252 232 222 225 257 266 260 243 244 236 247 262 274 255 257 248 258 266 272 288 263 282 268 250 272 257 275 282 279 282 282 279 278
280 284 287 278 270 265 261 251 263 265 251 253 244 247 254 259 256 256 244 250 247 262 241 259 253 261 253 254 254 269 260 239 240 247 290 305 244 274 279 293 292 289 285 282 281
268 270 267 266 273 270 265 270 283 288 281 266 261 263 255 251 264 262 246 234 240 252 264 261 252 242 254 266 266 256 246 232 212 217 226 256 276 275 277 280 285 292 288 281 278
266 267 264 260 263 263 259 268 274 275 271 274 269 261 257 266 266 248 254 257 254 253 246 261 250 288 281 262 248 234 234 239 233 245 241 254 260 269 278 276 285 289 285 282 283
258 258 259 254 253 256 260 262 253 261 258 263 271 269 278 284 272 263 255 257 251 250 263 273 256 248 255 286 276 269 270 265 255 254 267 250 274 276 285 288 285 287 290 291 292
251 251 253 254 244 236 247 251 260 256 259 266 265 262 262 255 267 268 263 266 267 271 272 268 267 273 275 275 274 273 268 262 261 266 255 279 273 283 285 279 289 292 293 293 296
257 251 249 253 255 256 258 260 262 262 261 264 261 264 263 265 266 263 265 260 268 273 273 274 274 282 284 288 283 278 274 275 270 263 263 274 282 278 287 289 283 286 291 293 294
256 255 253 253 255 260 261 265 264 260 263 259 258 259 263 263 265 267 267 271 271 274 275 271 268 281 279 285 294 293 291 267 260 263 270 269 272 280 281 284 287 294 297 291 286
Height
3078 3078 3077 3078 3080 3084 3082 3085 3088 3092 3096 3101 3107 3111 3118 3126 3132 3136 3140 3145 3148 3151 3153 3155 3157 3159 3160 3162 3163 3163 3164 3164 3163 3163 3164 3164 3164 3164 3164 3163 3162 3162 3161 3160 3158
3083 3082 3083 3084 3085 3086 3087 3090 3093 3096 3100 3106 3111 3115 3121 3128 3133 3137 3141 3144 3148 3150 3153 3154 3156 3158 3160 3161 3162 3162 3162 3161 3161 3162 3162 3162 3162 3162 3162 3160 3160 3159 3158 3156 3155
3088 3087 3088 3088 3088 3090 3093 3095 3098 3101 3106 3111 3115 3118 3124 3129 3136 3137 3141 3144 3147 3149 3152 3153 3156 3158 3159 3160 3160 3160 3160 3159 3159 3159 3160 3160 3160 3159 3159 3158 3158 3156 3154 3153 3151
3094 3093 3092 3093 3094 3096 3098 3100 3103 3107 3111 3115 3118 3122 3127 3132 3138 3138 3141 3144 3146 3149 3151 3152 3155 3156 3158 3158 3158 3158 3157 3157 3157 3158 3158 3158 3157 3157 3156 3156 3154 3153 3152 3150 3149
3102 3100 3100 3099 3100 3102 3103 3106 3108 3111 3115 3119 3121 3125 3130 3135 3136 3138 3142 3144 3146 3149 3151 3152 3154 3155 3156 3156 3156 3155 3156 3156 3156 3156 3155 3155 3154 3154 3153 3152 3151 3151 3149 3148 3146
3109 3108 3107 3106 3107 3108 3109 3111 3114 3116 3119 3121 3124 3128 3133 3137 3137 3139 3142 3145 3146 3148 3149 3151 3152 3153 3154 3154 3154 3154 3154 3154 3154 3154 3153 3153 3152 3150 3150 3149 3148 3146 3145 3144 3143
3114 3114 3113 3113 3113 3114 3115 3117 3118 3120 3122 3125 3128 3132 3135 3138 3138 3140 3142 3144 3145 3147 3148 3149 3150 3152 3152 3152 3152 3152 3153 3152 3151 3151 3151 3150 3149 3148 3147 3146 3144 3143 3141 3140 3140
3119 3118 3117 3117 3118 3118 3119 3120 3122 3124 3126 3128 3131 3134 3136 3137 3138 3140 3142 3143 3145 3146 3147 3148 3149 3150 3151 3151 3151 3151 3152 3150 3149 3149 3149 3149 3147 3145 3144 3143 3140 3138 3137 3137 3137
3123 3122 3122 3122 3122 3123 3123 3123 3124 3126 3128 3131 3134 3135 3137 3138 3139 3140 3141 3142 3144 3145 3145 3147 3148 3149 3149 3149 3150 3150 3150 3149 3148 3147 3146 3146 3145 3143 3141 3138 3137 3134 3133 3134 3135
3125 3125 3124 3125 3125 3125 3125 3126 3127 3129 3131 3133 3135 3139 3138 3138 3138 3140 3140 3142 3143 3144 3145 3145 3146 3147 3147 3148 3149 3148 3147 3147 3146 3145 3143 3142 3141 3139 3136 3133 3131 3130 3131 3132 3132
3126 3126 3126 3126 3126 3125 3126 3128 3133 3135 3134 3135 3136 3136 3137 3138 3139 3140 3140 3142 3142 3143 3143 3144 3145 3145 3145 3145 3146 3146 3146 3145 3143 3142 3141 3138 3136 3133 3130 3128 3127 3128 3129 3130 3130
3128 3127 3127 3128 3129 3129 3130 3131 3132 3135 3135 3135 3136 3137 3137 3138 3139 3139 3141 3143 3142 3142 3143 3144 3142 3143 3143 3143 3144 3144 3144 3143 3141 3140 3138 3134 3131 3128 3126 3125 3125 3126 3127 3128 3128
3131 3130 3130 3130 3130 3131 3132 3133 3134 3135 3136 3138 3137 3137 3138 3139 3138 3139 3140 3140 3140 3141 3141 3140 3142 3142 3142 3142 3142 3142 3142 3141 3140 3136 3133 3130 3126 3123 3123 3123 3123 3124 3125 3125 3125
3134 3132 3131 3132 3134 3133 3134 3134 3135 3136 3137 3139 3138 3138 3138 3138 3139 3139 3138 3140 3139 3139 3139 3140 3140 3141 3140 3140 3141 3141 3140 3138 3136 3135 3134 3130 3127 3122 3121 3121 3122 3122 3122 3123 3123
3136 3134 3134 3133 3134 3134 3135 3135 3136 3137 3137 3139 3137 3136 3136 3138 3138 3138 3138 3137 3137 3137 3140 3140 3139 3139 3138 3140 3140 3140 3137 3135 3133 3131 3129 3127 3128 3118 3118 3118 3119 3120 3120 3120 3120
3137 3136 3135 3135 3134 3134 3134 3135 3136 3138 3134 3136 3136 3136 3137 3136 3137 3136 3137 3137 3137 3137 3137 3138 3137 3137 3137 3138 3137 3136 3134 3131 3129 3128 3128 3124 3124 3117 3115 3116 3116 3116 3117 3117 3117
3137 3136 3135 3135 3135 3134 3134 3134 3136 3134 3135 3136 3135 3135 3135 3135 3136 3136 3136 3136 3137 3137 3136 3136 3135 3135 3136 3136 3135 3134 3132 3131 3130 3127 3122 3121 3121 3113 3112 3113 3113 3113 3113 3113 3113
3136 3136 3134 3135 3134 3133 3133 3135 3133 3132 3132 3133 3133 3134 3134 3134 3134 3135 3135 3134 3134 3134 3134 3134 3134 3133 3133 3134 3133 3132 3132 3131 3128 3122 3120 3118 3114 3110 3108 3108 3109 3109 3110 3109 3109
3135 3134 3133 3133 3133 3133 3134 3132 3131 3131 3132 3132 3132 3131 3132 3133 3134 3133 3132 3132 3132 3133 3135 3133 3133 3131 3131 3131 3132 3130 3130 3130 3127 3124 3122 3113 3109 3107 3105 3105 3106 3106 3106 3106 3105
3131 3131 3131 3131 3130 3130 3132 3130 3130 3130 3131 3131 3131 3131 3131 3131 3132 3131 3130 3130 3130 3130 3130 3130 3131 3129 3129 3129 3129 3128 3129 3128 3127 3125 3118 3110 3108 3105 3104 3104 3104 3104 3103 3102 3101
3126 3127 3127 3128 3129 3128 3128 3127 3127 3128 3128 3130 3129 3129 3129 3129 3129 3129 3128 3128 3127 3127 3128 3128 3128 3128 3127 3125 3125 3126 3125 3126 3126 3124 3119 3113 3105 3104 3103 3102 3101 3100 3099 3097 3095
3122 3123 3122 3123 3125 3124 3124 3124 3124 3123 3125 3125 3126 3125 3125 3126 3126 3126 3125 3124 3123 3123 3124 3124 3123 3122 3122 3120 3120 3119 3119 3119 3121 3120 3118 3114 3100 3100 3099 3099 3098 3097 3094 3092 3089
3117 3118 3118 3118 3119 3119 3120 3120 3119 3118 3118 3120 3122 3122 3122 3123 3123 3120 3120 3120 3120 3121 3120 3121 3121 3121 3118 3118 3116 3115 3114 3114 3114 3113 3107 3107 3095 3094 3094 3092 3091 3089 3086 3085 3083
3114 3113 3114 3113 3112 3114 3115 3115 3115 3115 3115 3115 3115 3116 3119 3120 3120 3118 3117 3117 3116 3117 3116 3115 3114 3114 3114 3114 3113 3112 3111 3111 3110 3107 3099 3094 3086 3094 3092 3087 3081 3079 3077 3076 3072
3107 3107 3107 3107 3108 3108 3109 3110 3110 3110 3110 3110 3111 3111 3110 3109 3111 3113 3114 3114 3113 3113 3113 3112 3108 3107 3104 3104 3101 3099 3099 3099 3095 3094 3094 3078 3084 3085 3082 3076 3074 3071 3068 3067 3064
3102 3101 3102 3102 3102 3103 3103 3103 3103 3104 3105 3105 3104 3106 3106 3106 3106 3104 3105 3106 3107 3107 3106 3105 3102 3099 3095 3096 3094 3089 3088 3086 3086 3085 3081 3076 3075 3073 3071 3069 3066 3064 3062 3061 3058
3093 3094 3094 3095 3096 3097 3097 3098 3097 3096 3098 3099 3099 3099 3100 3100 3099 3099 3100 3101 3099 3100 3099 3099 3098 3095 3088 3087 3085 3078 3074 3074 3074 3074 3075 3073 3070 3066 3063 3061 3058 3057 3055 3052 3050